{"data":{"norad_id":66949,"epoch":"2026-09-20T06:00:40.169088Z","epoch_age_seconds":102797,"freshness":"FRESH","line1":"1 66949U 25286AA  26263.25046492  .00015576  00000+0  47103-3 0  9999","line2":"2 66949  53.1579 170.5697 0000992 100.9954 259.1160 15.34409205 45263","mean_motion":15.34409205,"eccentricity":9.92e-5,"inclination_deg":53.1579,"raan_deg":170.5697,"arg_perigee_deg":100.9954,"mean_anomaly_deg":259.116,"bstar":0.00047103,"rev_number":4526,"period_min":93.847195083791,"perigee_km":461.9972725062,"apogee_km":463.35448978182,"semimajor_km":6840.812881144,"source":"CELESTRAK","updated_at":"2026-09-21T09:00:36.060948Z"}}